Home > Weather > Bend > Past weeks

Flag for USA Past Weather in Bend, Oregon, USA — Yesterday and Last 2 Weeks

Now
51 °F

Passing clouds.


Feels Like: 51 °F
Forecast: 42 / 63 °F
Wind: No wind

Location: Roberts Field Airport

Current Time: May 24, 2016 at 8:57:35 AM

Latest Report: May 24, 2016 at 7:56 AM


Visibility: 10 mi

Pressure: 29.92 "Hg (26.20 "Hg at 1103m altitude)

Humidity: 66%

Dew Point: 40 °F

Location of BendLocation

Past Weather in Bend — Graph

°F

Bend Temperature Yesterday

Maximum temperature yesterday: 62 °F (at 5:56 PM)
Minimum temperature yesterday: 34 °F (at 5:56 AM)
Average temperature yesterday: 51 °F

High & Low Weather Summary for the Past Weeks

 TemperatureHumidityPressure
High81 °F (May 12, 2:56 PM)96% (May 22, 12:56 AM)30.22 "Hg (May 22, 12:56 AM)
Low31 °F (May 22, 5:56 AM)10% (May 11, 4:56 PM)29.62 "Hg (May 20, 4:56 PM)
Average54 °F55%29.96 "Hg
* Reported May 9 6:56 AM — May 24 6:56 AM, Bend, Weather by CustomWeather, © 2016

Note: Actual official high and low records may vary slightly from our data, if they occured in-between our weather recording intervals... More about our weather records

Advertising

Bend Weather History for the Previous 24 Hours

Scroll right to see more
 ConditionsComfort  
Time TempWeatherWind HumidityBarometerVisibility
6:56 AM
Tue, May 24
45 °FSunny.5 mph82%29.92 "Hg10 mi
5:56 AM40 °FPassing clouds.5 mph89%29.91 "Hg10 mi
4:56 AM40 °FClear.3 mph89%29.91 "Hg10 mi
3:56 AM42 °FPassing clouds.3 mph85%29.91 "Hg10 mi
2:56 AM45 °FPassing clouds.6 mph82%29.90 "Hg10 mi
1:56 AM41 °FPassing clouds.No wind86%29.91 "Hg10 mi
12:56 AM44 °FClear.No wind82%29.91 "Hg10 mi
11:56 PM
Mon, May 23
48 °FPartly cloudy.3 mph71%29.91 "Hg10 mi
10:56 PM49 °FPassing clouds.5 mph69%29.90 "Hg10 mi
9:56 PM50 °FClear.6 mph66%29.89 "Hg10 mi
8:56 PM53 °FSunny.7 mph59%29.88 "Hg10 mi
7:56 PM57 °FPassing clouds.14 mph49%29.85 "Hg10 mi
6:56 PM59 °FOvercast.14 mph42%29.86 "Hg10 mi
5:56 PM62 °FMostly cloudy.14 mph39%29.86 "Hg10 mi
4:56 PM61 °FPartly sunny.5 mph34%29.85 "Hg10 mi
3:56 PM61 °FOvercast.3 mph35%29.86 "Hg10 mi
2:56 PM60 °FMostly cloudy.No wind35%29.87 "Hg10 mi
1:56 PM61 °FScattered clouds.5 mph35%29.86 "Hg10 mi
12:56 PM60 °FPassing clouds.7 mph36%29.87 "Hg10 mi
11:56 AM58 °FSunny.6 mph41%29.89 "Hg10 mi
10:56 AM53 °FPassing clouds.3 mph51%29.91 "Hg10 mi
9:56 AM52 °FScattered clouds.7 mph57%29.92 "Hg10 mi
8:56 AM51 °FPassing clouds.5 mph56%29.93 "Hg10 mi
Weather by CustomWeather, © 2016

See weather overviewHow to use our weather pages